Weather observations for the past three days for
Lewis University Airport
Metric (Imperial)
Date Time (cdt) Wind (kph) Vis. (km) Weather Sky Cond. Temperature (ºC) Relative Humidity Wind Chill (°C) Heat Index (°C) Pressure Precipitation (cm)
Air Dwpt 6 hour altimeter (cm) sea level (mb) 1 hr 3 hr 6 hr
Max. Min.
10 06:45 NE 7 16.09 Fair CLR 7 2 71% 6 76.33 0.0
10 06:00 NE 9 16.09 Fair CLR 6 0 66% 4 76.25 0.0
10 05:35 NE 11 16.09 Fair CLR 6 0 66% 4 76.23 0.0
10 05:10 N 11 16.09 Fair CLR 6 0 66% 4 76.23 0.0
10 04:50 N 11 16.09 Fair CLR 6 0 66% 4 76.2 0.0
10 04:30 NE 13 16.09 Fair CLR 7 0 61% 5 76.17 0.0
10 04:15 NE 11 16.09 Fair CLR 6 0 66% 4 76.17 0.0
10 03:55 NE 17 16.09 Fair CLR 8 0 57% 6 76.17 0.0
10 03:35 NE 19 16.09 Fair CLR 8 0 57% 5 76.17 0.0
10 03:15 NE 17 16.09 Fair CLR 9 1 58% 7 76.15 0.0
10 02:55 NE 19 G 28 16.09 Fair CLR 9 2 62% 7 76.12 0.0
10 02:35 NE 15 16.09 Fair CLR 7 4 81% 5 76.1 0.0
10 02:15 N 11 16.09 Fair CLR 8 4 76% 6 76.07 0.0
10 01:55 Calm 16.09 Fair CLR 9 4 71% 76.02 0.0
10 01:35 Calm 16.09 Fair CLR 10 3 62% 76.02 0.0
10 01:15 Calm 16.09 Fair CLR 10 3 62% 76 0.0
10 00:50 Calm 16.09 Fair CLR 10 3 62% 76 0.0
10 00:30 N 6 16.09 Fair CLR 11 2 54% 75.97 0.0
10 00:10 Calm 16.09 Fair CLR 11 2 54% 75.95 0.0
09 23:55 Calm 16.09 Fair CLR 11 2 54% 75.95 0.0
09 23:35 Calm 16.09 Fair CLR 10 2 58% 75.92 0.0
09 23:15 NE 6 16.09 A Few Clouds FEW065 10 3 62% 75.9 0.0
09 22:55 NE 11 16.09 Partly Cloudy SCT065 11 2 54% 75.87 0.0
09 22:15 NE 13 16.09 Fair CLR 12 3 54% 75.82 0.0
09 21:55 E 17 16.09 Fair CLR 12 2 51% 75.82 0.0
09 21:35 NE 15 16.09 Fair CLR 13 2 47% 75.79 0.0
09 21:10 NE 17 16.09 Fair CLR 15 3 45% 75.74 0.0
09 20:50 N 15 16.09 Fair CLR 18 3 37% 75.69 0.0
09 20:30 NW 17 16.09 Fair CLR 18 3 37% 75.64 0.0
09 20:15 NW 15 16.09 A Few Clouds FEW080 19 2 32% 75.62 0.0
09 19:55 NW 7 G 22 16.09 Partly Cloudy SCT060 20 3 33% 75.57 0.0
09 18:48 W 22 G 35 16.09 Mostly Cloudy SCT080 BKN090 21 6 38% 75.49 0.0
09 17:55 W 30 G 48 16.09 Fair CLR 22 5 33% 75.44 0.0
09 16:52 W 31 G 54 16.09 Fair CLR 23 3 27% 75.39 0.0
09 15:54 W 30 G 44 16.09 Mostly Cloudy BKN095 23 2 25% 75.36 0.0
09 14:45 W 37 G 59 16.09 Mostly Cloudy and Breezy BKN100 BKN120 23 1 23% 75.36 0.0
09 13:45 W 31 G 48 16.09 Fair CLR 23 2 25% 75.36 0.0
09 12:45 W 22 G 39 16.09 Fair CLR 23 6 33% 75.36 0.0
09 11:45 SW 15 G 37 16.09 Fair CLR 21 9 46% 75.36 0.0
09 10:45 SW 19 16.09 Fair CLR 19 11 60% 75.39 0.0
09 09:45 SW 19 G 30 16.09 Fair CLR 16 12 77% 75.39 0.0
09 08:45 SW 19 G 30 16.09 A Few Clouds FEW014 15 12 82% 75.39 0.0
09 07:45 SW 15 G 28 16.09 A Few Clouds FEW120 13 11 88% 75.39 0.0
09 06:45 SW 13 16.09 Partly Cloudy SCT110 11 11 100% 75.39 0.0
09 05:45 S 17 9.66 Fog/Mist CLR 11 11 100% 75.34 0.0
09 05:30 S 20 11.27 Fair CLR 11 11 100% 75.34 0.0
09 05:10 S 15 14.48 Fair CLR 11 11 100% 75.36 0.0
09 04:50 S 17 14.48 Fair CLR 10 10 100% 8 75.36 0.0
09 04:35 S 11 12.87 Fair CLR 10 10 100% 9 75.39 0.0
09 04:15 S 11 14.48 Fair CLR 10 10 100% 9 75.39 0.0
09 03:55 S 9 16.09 Fair CLR 11 11 100% 75.39 0.0
09 03:35 S 13 16.09 Fair CLR 11 11 100% 75.39 0.0
09 02:55 S 13 16.09 Fair CLR 11 11 100% 75.39 0.0
09 02:35 S 15 16.09 Fair CLR 11 11 100% 75.41 0.0
09 02:15 SW 11 16.09 Fair CLR 11 11 100% 75.44 0.0
09 01:55 S 13 16.09 Fair CLR 11 11 100% 75.44 0.0
09 01:30 SW 11 16.09 Fair CLR 11 11 100% 75.46 0.0
09 01:10 S 11 16.09 Fair CLR 11 11 100% 75.46 0.0
09 00:50 S 13 16.09 Fair CLR 12 11 94% 75.49 0.0
09 00:35 SW 11 16.09 Fair CLR 12 11 94% 75.49 0.0
09 00:15 S 13 16.09 Fair CLR 13 11 88% 75.49 0.0
08 23:35 S 15 16.09 Fair CLR 13 12 94% 75.49 0.0
08 23:15 S 15 16.09 Fair CLR 13 12 94% 75.49 0.0
08 22:55 S 19 16.09 Fair CLR 14 11 82% 75.51 0.0
08 22:35 S 19 16.09 Fair CLR 14 11 82% 75.51 0.0
08 22:15 S 20 16.09 Fair CLR 14 10 77% 75.51 0.0
08 21:55 S 19 16.09 Fair CLR 15 9 68% 75.51 0.0
08 21:30 S 19 16.09 Fair CLR 15 9 68% 75.51 0.0
08 21:10 S 19 16.09 Fair CLR 16 10 68% 75.51 0.0
08 20:50 SW 20 16.09 Fair CLR 16 10 68% 75.49 0.0
08 20:35 S 17 16.09 Fair CLR 16 7 55% 75.49 0.0
08 20:15 SW 13 16.09 Fair CLR 17 6 49% 75.46 0.0
08 19:49 SW 15 16.09 Fair CLR 18 7 49% 75.49 0.0
08 18:51 SW 11 16.09 A Few Clouds FEW080 19 6 43% 75.49 0.0
08 17:45 SW 9 G 20 16.09 Fair CLR 19 6 43% 75.49 0.0
08 16:50 S 9 G 20 16.09 Mostly Cloudy FEW060 BKN080 19 6 43% 75.51 0.0
08 15:50 SW 11 16.09 Mostly Cloudy FEW050 SCT060 BKN075 19 7 46% 75.54 0.0
08 14:45 SW 13 16.09 Mostly Cloudy BKN049 BKN060 20 7 43% 75.59 0.0
08 13:45 SW 7 G 20 16.09 Mostly Cloudy BKN044 BKN070 18 7 49% 75.64 0.0
08 12:49 Calm 16.09 Partly Cloudy SCT035 SCT044 SCT050 17 9 60% 75.69 0.0
08 11:45 SE 7 16.09 Mostly Cloudy BKN029 BKN033 17 10 64% 75.77 0.0
08 10:45 Calm 16.09 Partly Cloudy FEW024 SCT075 15 10 72% 75.82 0.0
08 09:45 Vrbl 6 16.09 Partly Cloudy SCT019 SCT075 15 11 77% 75.84 0.0
08 08:45 S 9 16.09 Mostly Cloudy FEW065 BKN080 12 10 88% 75.87 0.0
08 07:45 E 7 16.09 Mostly Cloudy SCT075 BKN110 10 9 94% 9 75.84 0.0
08 06:45 E 6 16.09 Overcast OVC100 9 9 100% 75.84 0.0
08 06:15 N 9 16.09 Overcast OVC080 8 8 100% 7 75.84 0.0
08 05:55 Calm 16.09 Mostly Cloudy BKN070 8 8 100% 75.84 0.0
08 05:30 S 9 16.09 Overcast SCT055 BKN065 OVC090 8 7 93% 7 75.84 0.0
08 05:15 Calm 16.09 Overcast FEW055 BKN075 OVC090 8 7 93% 75.84 0.0
08 04:55 Calm 16.09 Overcast FEW075 OVC090 8 7 93% 75.87 0.0
08 04:35 Calm 16.09 Overcast OVC095 8 7 93% 75.84 0.0
08 04:15 Calm 16.09 Overcast OVC095 7 6 93% 75.87 0.0
08 03:55 Calm 16.09 Overcast BKN095 OVC120 7 6 93% 75.9 0.0
08 03:35 N 6 16.09 Partly Cloudy SCT095 8 6 87% 75.9 0.0
08 03:15 SW 9 16.09 Partly Cloudy FEW080 SCT090 10 6 76% 9 75.87 0.0
08 02:35 W 7 16.09 Mostly Cloudy FEW060 BKN080 BKN090 10 7 82% 9 75.9 0.0
08 02:10 SW 9 16.09 Mostly Cloudy BKN080 BKN090 10 7 82% 9 75.9 0.0
08 01:50 SW 9 16.09 A Few Clouds FEW080 10 7 82% 9 75.9 0.0
08 01:35 W 9 16.09 A Few Clouds FEW090 10 7 82% 9 75.92 0.0
08 01:15 SW 13 16.09 A Few Clouds FEW090 10 7 82% 8 75.92 0.0
08 00:55 SW 11 16.09 A Few Clouds FEW090 10 7 82% 9 75.92 0.0
08 00:35 SW 11 16.09 Partly Cloudy SCT090 10 7 82% 9 75.9 0.0
08 00:15 SW 13 16.09 Partly Cloudy SCT100 10 6 76% 8 75.9 0.0
07 23:55 SW 11 16.09 A Few Clouds FEW090 11 6 72% 75.9 0.0
07 23:35 SW 9 16.09 Fair CLR 10 6 76% 9 75.9 0.0
07 23:15 W 9 16.09 Fair CLR 11 6 72% 75.87 0.0
07 22:55 SW 11 G 22 16.09 Fair CLR 12 6 67% 75.87 0.0
07 22:30 SW 15 16.09 A Few Clouds FEW080 12 6 67% 75.84 0.0
07 22:10 SW 15 16.09 Fair CLR 12 5 63% 75.84 0.0
07 21:50 S 11 16.09 A Few Clouds FEW085 12 4 58% 75.84 0.0
07 21:35 SW 11 16.09 A Few Clouds FEW080 11 4 62% 75.84 0.0
07 21:15 S 13 16.09 Partly Cloudy SCT085 10 5 71% 8 75.84 0.0
07 20:55 S 11 16.09 Fair CLR 10 5 71% 9 75.82 0.0
07 20:35 S 7 16.09 Fair CLR 11 5 67% 75.79 0.0
07 20:15 S 11 16.09 Fair CLR 11 5 67% 75.77 0.0
07 19:45 S 7 16.09 Fair CLR 12 6 67% 75.77 0.0
07 18:45 NW 9 16.09 Partly Cloudy SCT100 15 4 48% 75.77 0.0
07 17:45 NW 9 16.09 Overcast BKN060 OVC090 14 4 51% 75.77 0.0
07 16:45 SW 35 G 50 16.09 Mostly Cloudy and Breezy FEW048 SCT055 BKN065 15 4 48% 75.77 0.0
07 15:45 SW 26 G 43 16.09 Partly Cloudy FEW060 SCT100 15 4 48% 75.82 0.0
07 14:45 SW 41 G 61 16.09 Partly Cloudy and Breezy SCT060 SCT100 14 4 51% 75.92 0.0
07 13:45 SW 44 G 61 16.09 Mostly Cloudy and Windy FEW044 SCT048 BKN060 13 3 51% 75.97 0.0
07 12:46 SW 39 G 50 16.09 Light Drizzle and Breezy FEW047 SCT055 BKN065 14 0 39% 76 0.0
07 11:45 SW 20 G 37 16.09 Mostly Cloudy FEW060 BKN110 14 -1 36% 76.05 0.0
07 10:45 SW 26 16.09 A Few Clouds FEW085 13 -1 38% 76.12 0.0
07 09:45 SW 11 16.09 Fair CLR 11 -1 44% 76.17 0.0
07 08:50 Vrbl 11 16.09 Partly Cloudy SCT090 9 -1 50% 8 76.2 0.0
07 07:45 Calm 16.09 Fair CLR 6 1 71% 76.23 0.0
Date Time (cdt) Wind (kph) Vis. (km) Weather Sky Cond. Air Dwpt Max. Min. Relative Humidity Wind Chill (°C) Heat Index (°C) altimeter (cm) sea level (mb) 1 hr 3 hr 6 hr
6 hour
Temperature (ºC) Pressure Precipitation (cm)